Regional Weather Roundup
Issued by NWS

Home | Current Version | Previous Version | Text Only | Print | Product List | Glossary Off
Versions: 1 2 3 4 5 6 7 8 9 10 11 12 13 14 15 16 17 18 19 20 21 22 23 24 25 26 27 28 29 30 31 32 33 34 35 36 37 38 39 40 41 42 43 44 45 46 47 48 49 50

343
ASUS43 KDTX 280410
RWRMI
MICHIGAN HOURLY REGIONAL WEATHER ROUNDUP
NATIONAL WEATHER SERVICE DETROIT/PONTIAC MI
1200 AM EDT WED SEP 28 2016

NOTE: "FAIR" INDICATES FEW OR NO CLOUDS BELOW 12,000 FEET WITH NO
SIGNIFICANT WEATHER AND/OR OBSTRUCTION TO VISIBILITY.

MIZ047>049-052>055-059>063-066>070-074>076-081>083-280500-
SOUTHEAST LOWER MICHIGAN

CITY           SKY/WX    TMP DP  RH WIND       PRES   REMARKS
ADRIAN         PTCLDY    49  45  86 CALM      29.83R
ALMA           DRIZZLE   54  51  90 SW7       29.80S
ANN ARBOR      PTCLDY    49  46  90 CALM      29.82R
BAD AXE        MOCLDY    50  46  85 CALM      29.82S
CARO           CLOUDY    52  48  87 CALM      29.81R
DETROIT CITY   PTCLDY    59  45  59 CALM      29.82S
DETROIT        CLOUDY    58  43  57 CALM      29.83R
FLINT          MOCLDY    54  49  83 SW5       29.83R
GROSSE ILE     PTCLDY    56  43  62 CALM      29.81S
HILLSDALE      MOCLDY    48  43  81 CALM      29.82R
HOWELL         CLOUDY    55  48  76 CALM      29.83R

CITY           SKY/WX    TMP DP  RH WIND       PRES   REMARKS
JACKSON        PTCLDY    52  48  86 N3        29.83R
LAMBERTVILLE   PTCLDY    49  45  86 CALM      29.82S
LANSING        CLOUDY    54  47  77 S5        29.82R
LAPEER         CLOUDY    53  50  88 CALM      29.82S
MASON          CLOUDY    55  46  73 CALM      29.82S
MONROE         PTCLDY    49  46  86 CALM      29.81S
MT. CLEMENS    CLOUDY    57  46  67 NE2       29.80S
PONTIAC        CLOUDY    56  48  74 SE3       29.82R
PORT HURON     CLOUDY    52  50  93 CALM      29.84R
TRI CITIES     LGT RAIN  55  49  80 S7        29.81R
MIDLAND        RAIN      54  49  83 S3        29.79R
TROY           CLOUDY    60  43  53 CALM      29.84S
SAGINAW HB     CLOUDY    54  48  82 S6        29.80S
$$
MIZ043>046-050>051-056>058-064>065-071>073-077>080-280500-
SOUTHWEST LOWER MICHIGAN

CITY           SKY/WX    TMP DP  RH WIND       PRES   REMARKS
BATTLE CREEK   CLOUDY    55  49  80 E3        29.81F
BENTON HARBOR  PTCLDY    52  47  83 E6        29.78F
BIG RAPIDS     LGT RAIN  52  51  97 CALM      29.77S
COLDWATER      CLOUDY    52  46  79 CALM      29.81S
FREMONT        DRIZZLE   51  50  99 CALM      29.77S
HOLLAND        MOCLDY    53  51  93 S5        29.79R
GRAND RAPIDS   CLOUDY    53  49  86 S6        29.79S
IONIA          CLOUDY    53  47  80 SW3       29.79S
KALAMAZOO      MOCLDY    55  47  74 CALM      29.81S
LUDINGTON      RAIN      51  50  99 CALM      29.74S
MARSHALL       MOCLDY    54  48  82 CALM      29.81S
MOUNT PLEASANT LGT RAIN  54  50  87 CALM      29.78S
MUSKEGON       LGT RAIN  55  51  86 CALM      29.78R
SOUTH HAVEN    CLOUDY    55  52  91 E5        29.79S
$$
MIZ016>042-280500-
NORTHERN LOWER MICHIGAN

CITY           SKY/WX    TMP DP  RH WIND       PRES   REMARKS
ALPENA         LGT RAIN  52  49  89 CALM      29.78S
BEAVER ISLAND  MOCLDY    49  49 100 CALM      29.72R FOG
BELLAIRE       CLOUDY    51  49  93 CALM      29.75R
CADILLAC       DRIZZLE   48  47  96 CALM      29.75R
CHARLEVOIX     CLOUDY    51  51  99 SE6       29.76R
FRANKFORT      LGT RAIN  52  49  91 CALM      29.73R
GAYLORD        CLOUDY    50  46  86 S6        29.76R
GRAYLING       DRIZZLE   49  48  99 CALM      29.77R
HARBOR SPRINGS CLOUDY    50  49  97 CALM      29.74S
HOUGHTON LAKE  CLOUDY    50  48  93 S6        29.78R
MANISTEE       RAIN      51  50  96 VRB3      29.74R
OSCODA         MOCLDY    51  49  92 S3        29.78R
PELLSTON       MOCLDY    50  48  93 SE3       29.75R
ROGERS CITY    LGT RAIN  51  49  92 SE3       29.79R
TRAVERSE CITY  LGT RAIN  52  49  89 S5        29.73R
$$
MIZ007>008-015-280500-
EASTERN UPPER MICHIGAN

CITY           SKY/WX    TMP DP  RH WIND       PRES   REMARKS
KINROSS        CLOUDY    51  49  92 E8        29.76R
MACKINAC ISLAN CLOUDY    52  52 100 S7        29.75R
NEWBERRY       CLOUDY    48  47  97 E5        29.73R
S. S. MARIE    CLOUDY    53  51  93 E3        29.76R
MUNISING         N/A     51  50  96 CALM      29.69R
$$
MIZ004>006-011>014-085-280500-
CENTRAL UPPER MICHIGAN

CITY           SKY/WX    TMP DP  RH WIND       PRES   REMARKS
MANISTIQUE     CLOUDY    51  48  92 CALM      29.71R
ESCANABA       PTCLDY    48  47  96 W5        29.71R
MENOMINEE      CLOUDY    50  49  96 CALM      29.73R
SAWYER-GWINN   CLOUDY    47  46  95 CALM      29.70R
$$
MIZ001>003-009>011-084-280500-
WESTERN UPPER MICHIGAN

CITY           SKY/WX    TMP DP  RH WIND       PRES   REMARKS
IRON MOUNTAIN  CLOUDY    49  46  90 NW5       29.71R
HOUGHTON       CLEAR     52  49  89 N8        29.72R
COPPER HARBOR    N/A     57  54  89 E10G28    29.72R
IRONWOOD       CLOUDY    51  50  96 N12       29.79R
$$

ABBREVIATIONS USED IN REMARKS
   TC - TEMPERATURE IN CELSIUS
  WCI - WIND CHILL INDEX
   HX - HEAT INDEX
  VSB - VISIBILITY





USA.gov is the U.S. government's official web portal to all federal, state and local government web resources and services.